Miscellaneous Local Product
Issued by NWS North Platte, NE

Home | Current Version | Previous Version | Text Only | Print | Product List | Glossary On
Versions: 1 2 3 4 5 6 7 8 9 10 11 12 13 14 15 16 17 18 19 20 21 22 23 24 25 26 27 28 29 30 31 32 33 34 35 36 37 38 39 40 41 42 43 44 45 46 47 48 49 50
000
AXUS43 KLBF 272310
MISLBF


WESTERN AND NORTH CENTRAL NEBRASKA HOURLY WEATHER ROUNDUP
NATIONAL WEATHER SERVICE NORTH PLATTE NE
600 PM CDT TUE JUN 27 2017

NOTE: "FAIR" INDICATES FEW OR NO CLOUDS BELOW 12,000 FEET WITH NO
SIGNIFICANT WEATHER AND/OR OBSTRUCTIONS TO VISIBILITY.

NOTE: STATIONS NOT REPORTING VARIABLES SUCH AS SKY/WEATHER OR
PRESSURE ARE PROVIDED BY RAWS AND APRS NETWORKS AND ARE NOT UNDER
NATIONAL WEATHER SERVICE QUALITY CONTROL.

...OBSERVATIONS IN AND NEAR THE EASTERN PANHANDLE OF NEBRASKA...

CITY           SKY/WX    TMP DP  RH WIND       PRES   REMARKS
PINE RIDGE     TSTM      74  51  44 S33G52    29.64R
GORDON         FAIR      82  56  41 SW12      29.69R
CHADRON        TSTM      65  56  72 S22G45    29.65R
ALLIANCE       CLOUDY    74  57  55 N9        29.68F
SIDNEY         TSTM      71  55  56 E14       29.68F
CRESCENT LAKE    N/A     78  50  37 E6G29       N/A
$$

...OBSERVATIONS IN NORTHERN NEBRASKA AND FAR SOUTHERN SOUTH DAKOTA...

CITY           SKY/WX    TMP DP  RH WIND       PRES   REMARKS
WINNER         FAIR      90  63  40 S25G35    29.59F HX  91
VALENTINE      CLOUDY    86  56  35 S24G32    29.61F
THEDFORD       PTSUNNY   82  62  52 S17G24    29.74F
AINSWORTH      PTSUNNY   83  64  51 S23G31    29.67F
O`NEILL        MOSUNNY   82  65  56 S25G35    29.71F
ORD            MOSUNNY   84  63  49 SE18G26   29.70F
BROKEN BOW     MOSUNNY   86  65  49 S23G29    29.70F
VALENTINE NWR    N/A     84  58  40 S21G31      N/A
HALSEY           N/A     81  62  51 S13G25      N/A
BUTTE            N/A     83  65  53 S22G36      N/A
CHAMBERS         N/A     85  65  50 S8          N/A
EWING            N/A     81  67  62 S12G20      N/A
$$

...OBSERVATIONS IN SOUTHWEST NEBRASKA AND FAR NORTHEAST COLORADO...

CITY           SKY/WX    TMP DP  RH WIND       PRES   REMARKS
WRAY           FAIR      88  45  22 S14       29.70S
IMPERIAL       MOSUNNY   94  46  19 S16G22    29.66F HX  90
OGALLALA       PTSUNNY   91  58  32 SE15      29.65F HX  90
NORTH PLATTE   PTSUNNY   91  66  43 SE9G17    29.67F HX  93
MCCOOK         SUNNY     97  53  22 S24G37    29.66F HX  94
LEXINGTON      MOSUNNY   89  64  43 SE15G21   29.69F HX  90
STAPLETON        N/A     83  66  56 S5G12       N/A
GOTHENBURG       N/A     83  62  49 SE10        N/A
CALLAWAY         N/A     82  67  60 S21         N/A
$$

...OBSERVATIONS IN CENTRAL LINCOLN COUNTY AREA...

CITY           SKY/WX    TMP DP  RH WIND       PRES   REMARKS
N.P. AIRPORT   PTSUNNY   91  66  43 SE9G17    29.67F HX  93
N.P. DOWNTOWN    N/A     89  67  47 CALM        N/A  HX  91
N.P. SOUTHEAST   N/A     89  65  45 SE7G14      N/A  HX  91
N.P. HILLCREST   N/A     86  67  52 SE12G20     N/A
$$

...SOME OBSERVATIONS FROM AROUND THE REGION...

CITY           SKY/WX    TMP DP  RH WIND       PRES   REMARKS
DENVER         PTSUNNY   92  29  10 CALM      29.79F
LIMON          CLOUDY    89  38  16 S16G28    29.83F
ASPEN          MOSUNNY   80  19  10 W8G22     30.10F
LARAMIE        MOSUNNY   76  34  21 NW16G24   29.99S
CASPER         LGT RAIN  70  40  33 NW29G45   29.91R
CHEYENNE       MOSUNNY   85  32  15 NW21G30   29.87S
SCOTTSBLUFF    CLOUDY    87  54  32 NE9       29.68F
GRAND ISLAND   SUNNY     83  68  60 S22G30    29.76F
OMAHA          PTSUNNY   81  63  54 SE25G32   29.84F
SIOUX FALLS    CLOUDY    78  56  46 SE22G29   29.75F
PIERRE         CLOUDY    90  59  35 S23G29    29.51F
RAPID CITY     MOSUNNY   89  46  22 N13       29.59F
BISMARCK       PTSUNNY   88  62  41 S16       29.51F
KANSAS CITY    PTSUNNY   78  66  66 S13       29.93F
HILL CITY      SUNNY     96  55  25 S18G32    29.72F HX  94
WICHITA        MOSUNNY   89  68  49 SE25G32   29.85F HX  93
DODGE CITY     SUNNY     92  55  28 S25G37    29.80F HX  90
OKLAHOMA CITY  MOSUNNY   91  61  36 S15G22    29.91F HX  91
DALLAS         CLOUDY    76  69  79 E5        29.93
$$




USA.gov is the U.S. government's official web portal to all federal, state and local government web resources and services.